Location: *
(38.3914°N, 75.0697°W)
Time: 18:32:33
(UTC+00:00)

Lacrosse 5 rocket - Pass Details

Date: 17 February 2020
Orbit: 461 x 636 km, 57.0° (Epoch: 05 April)

Event Time Altitude Azimuth Distance (km) Brightness Sun altitude
Rises 00:25:12 0° 283° (WNW) 2,831 6.4 -21.4°
Reaches altitude 10° 00:28:53 10° 315° (NW) 1,969 4.7 -22.1°
Maximum altitude 00:30:39 12° 338° (NNW) 1,851 4.3 -22.5°
Drops below altitude 10° 00:32:27 10° 1° (N) 1,999 4.2 -22.8°
Enters shadow 00:33:17 - 10° (N) 2,148 4.2 -23.0°
